Flag for U.S.A. Weather past 2 weeks in Baton Rouge, Louisiana, U.S.A.

Now
60 °F

Sunny.


Feels Like: 60 °F
Forecast: 39 / 63 °F
Wind: 8 mph from Southeast

Location: Baton Rouge Metropolitan - Ryan Field

Current Time: Jan 31, 2015 at 12:25:15 PM

Latest Report: Jan 31, 2015 at 11:53 AM


Visibility: 10 mi

Pressure: 30.27 "Hg

Humidity: 44%

Dew point: 38 °F

Location of Baton RougeLocation

Historic Weather in Baton Rouge — Graph

°F

Baton Rouge temperature yesterday

Maximum temperature yesterday: 62 °F (at 2:53 PM)
Minimum temperature yesterday: 40 °F (at 10:53 PM)
Average temperature yesterday: 51 °F

Past Weeks' High & Low Weather Summary

 TemperatureHumidityPressure
High78 °F (Jan 29, 2:53 PM)96% (Jan 18, 3:53 AM)30.42 "Hg (Jan 18, 3:53 AM)
Low31 °F (Jan 17, 5:53 AM)18% (Jan 27, 2:53 PM)29.85 "Hg (Jan 25, 4:53 PM)
Average52 °F64%30.14 "Hg
* Reported Jan 16 10:53 AM — Jan 31 10:53 AM, Baton Rouge, Weather by CustomWeather, © 2014

Note: Actual official high and low records may vary slightly from our data, if they occured in-between our weather recording intervals... More about our weather records

Advertising

Baton Rouge weather history for previous 24 hours

 ConditionsComfort  
Time TempWeatherWind HumidityBarometerVisibility
10:53 AM
Jan 31
57 °FSunny.8 mph44%30.29 "Hg10 mi
9:53 AM51 °FSunny.10 mph46%30.31 "Hg10 mi
8:53 AM46 °FSunny.14 mph54%30.31 "Hg10 mi
7:53 AM40 °FSunny.9 mph70%30.31 "Hg10 mi
6:53 AM36 °FClear.6 mph75%30.31 "Hg10 mi
5:53 AM37 °FClear.8 mph76%30.29 "Hg10 mi
4:53 AM36 °FClear.7 mph79%30.28 "Hg10 mi
3:53 AM37 °FClear.7 mph79%30.28 "Hg10 mi
2:53 AM38 °FClear.6 mph76%30.30 "Hg10 mi
1:53 AM39 °FClear.5 mph73%30.31 "Hg10 mi
12:53 AM41 °FClear.5 mph70%30.32 "Hg10 mi
11:53 PM
Jan 30
42 °FClear.5 mph68%30.34 "Hg10 mi
10:53 PM40 °FClear.3 mph83%30.35 "Hg10 mi
9:53 PM41 °FClear.3 mph76%30.36 "Hg10 mi
8:53 PM43 °FClear.No wind76%30.36 "Hg10 mi
7:53 PM47 °FClear.No wind64%30.35 "Hg10 mi
6:53 PM51 °FClear.No wind50%30.34 "Hg10 mi
5:53 PM55 °FClear.No wind39%30.34 "Hg10 mi
4:53 PM59 °FSunny.5 mph32%30.32 "Hg10 mi
3:53 PM61 °FSunny.6 mph27%30.32 "Hg10 mi
2:53 PM62 °FSunny.6 mph29%30.33 "Hg10 mi
1:53 PM61 °FSunny.10 mph31%30.33 "Hg10 mi
12:53 PM59 °FSunny.12 mph32%30.36 "Hg10 mi
Weather by CustomWeather, © 2014

See weather overviewHow to use our weather pages